When you browse on this site, cookies collect data to enhance your experience and personalize the content and advertising you see.
Visit our Privacy Policy to learn more. By continuing to use the site, you agree to this use of cookies and data.
  • In Switzerland
  • List of Countries
  • For 7 days
  • Water Temperature
  • Satellite Maps
  • Weather Map
  • Weather Widgets
  • user-avatar
    Login

    Hourly Weather Donskie Ozerki

    Today, 17 June, Monday

    Time Temperature Precipitation Wind Pressure Humidity
    00:00 +15°C° 0 mm 1 mps 747 mmHg 92%
    01:00 +15°C° 0 mm 1 mps 747 mmHg 92%
    02:00 +15°C° 0 mm 1 mps 748 mmHg 93%
    03:00 +14°C° 0 mm 1 mps 748 mmHg 93%
    04:00 +15°C° 0 mm 1 mps 748 mmHg 91%
    05:00 +15°C° 0 mm 1 mps 748 mmHg 90%
    06:00 +16°C° 0 mm 1 mps 748 mmHg 88%
    07:00 +16°C° 0 mm 0 mps 748 mmHg 83%
    08:00 +18°C° 0 mm 0 mps 748 mmHg 78%
    09:00 +19°C° 0 mm 0 mps 748 mmHg 73%
    10:00 +22°C° 0 mm 1 mps 748 mmHg 68%
    11:00 +23°C° 0 mm 1 mps 748 mmHg 64%
    12:00 +24°C° 0 mm 2 mps 748 mmHg 60%
    13:00 +24°C° 0.1 mm 2 mps 748 mmHg 61%
    14:00 +24°C° 0.1 mm 3 mps 747 mmHg 63%
    15:00 +25°C° 0.1 mm 3 mps 747 mmHg 65%
    16:00 +25°C° 0.1 mm 3 mps 747 mmHg 68%
    17:00 +24°C° 0.1 mm 3 mps 747 mmHg 71%
    18:00 +24°C° 0.1 mm 2 mps 747 mmHg 73%
    19:00 +23°C° 0 mm 2 mps 747 mmHg 77%
    20:00 +20°C° 0 mm 2 mps 747 mmHg 81%
    21:00 +20°C° 0 mm 1 mps 747 mmHg 84%
    22:00 +19°C° 0 mm 1 mps 747 mmHg 85%
    23:00 +18°C° 0 mm 2 mps 747 mmHg 87%

    Tomorrow, 18 June, Tuesday

    Time Temperature Precipitation Wind Pressure Humidity
    00:00 +17°C° 0 mm 2 mps 747 mmHg 88%
    01:00 +17°C° 0 mm 2 mps 747 mmHg 88%
    02:00 +17°C° 0 mm 2 mps 747 mmHg 89%
    03:00 +17°C° 0 mm 2 mps 747 mmHg 89%
    04:00 +17°C° 0 mm 2 mps 746 mmHg 89%
    05:00 +18°C° 0 mm 2 mps 746 mmHg 88%
    06:00 +19°C° 0 mm 3 mps 746 mmHg 88%
    07:00 +20°C° 0.1 mm 3 mps 746 mmHg 85%
    08:00 +21°C° 0.1 mm 4 mps 746 mmHg 82%
    09:00 +22°C° 0.1 mm 4 mps 746 mmHg 79%
    10:00 +23°C° 1.2 mm 4 mps 746 mmHg 79%
    11:00 +23°C° 1.2 mm 5 mps 746 mmHg 80%
    12:00 +25°C° 1.2 mm 5 mps 746 mmHg 81%
    13:00 +23°C° 0.4 mm 5 mps 746 mmHg 82%
    14:00 +23°C° 0.4 mm 5 mps 745 mmHg 83%
    15:00 +22°C° 0.4 mm 4 mps 745 mmHg 85%
    16:00 +22°C° 0.1 mm 4 mps 745 mmHg 85%
    17:00 +22°C° 0.1 mm 4 mps 745 mmHg 85%
    18:00 +22°C° 0.1 mm 3 mps 745 mmHg 84%
    19:00 +21°C° 0.1 mm 3 mps 745 mmHg 87%
    20:00 +20°C° 0.1 mm 3 mps 746 mmHg 89%
    21:00 +19°C° 0.1 mm 2 mps 746 mmHg 92%
    22:00 +18°C° 0 mm 2 mps 746 mmHg 91%
    23:00 +18°C° 0 mm 3 mps 746 mmHg 90%

    Day after tomorrow, 19 June, Wednesday

    Time Temperature Precipitation Wind Pressure Humidity
    00:00 +17°C° 0 mm 3 mps 747 mmHg 89%
    01:00 +17°C° 0 mm 3 mps 747 mmHg 90%
    02:00 +16°C° 0 mm 3 mps 747 mmHg 91%
    03:00 +16°C° 0 mm 3 mps 747 mmHg 92%
    04:00 +16°C° 0 mm 3 mps 747 mmHg 90%
    05:00 +17°C° 0 mm 3 mps 747 mmHg 89%
    06:00 +17°C° 0 mm 3 mps 748 mmHg 88%
    07:00 +18°C° 0 mm 3 mps 748 mmHg 84%
    08:00 +20°C° 0 mm 3 mps 748 mmHg 79%
    09:00 +21°C° 0 mm 3 mps 748 mmHg 75%
    10:00 +22°C° 0 mm 3 mps 748 mmHg 69%
    11:00 +24°C° 0 mm 3 mps 748 mmHg 64%
    12:00 +25°C° 0 mm 4 mps 749 mmHg 58%
    13:00 +26°C° 0 mm 4 mps 748 mmHg 58%
    14:00 +26°C° 0 mm 4 mps 748 mmHg 58%
    15:00 +26°C° 0 mm 4 mps 748 mmHg 58%
    16:00 +26°C° 0 mm 3 mps 748 mmHg 62%
    17:00 +26°C° 0 mm 3 mps 748 mmHg 67%
    18:00 +25°C° 0 mm 2 mps 748 mmHg 71%
    19:00 +24°C° 0 mm 2 mps 748 mmHg 73%
    20:00 +21°C° 0 mm 2 mps 749 mmHg 75%
    21:00 +19°C° 0 mm 2 mps 749 mmHg 78%
    22:00 +18°C° 0 mm 2 mps 749 mmHg 76%
    23:00 +18°C° 0 mm 2 mps 749 mmHg 74%

    20 June, Thursday

    Time Temperature Precipitation Wind Pressure Humidity
    00:00 +17°C° 0 mm 2 mps 749 mmHg 72%
    01:00 +17°C° 0 mm 2 mps 749 mmHg 74%
    02:00 +16°C° 0 mm 2 mps 749 mmHg 77%
    03:00 +16°C° 0 mm 2 mps 749 mmHg 79%
    04:00 +17°C° 0 mm 2 mps 750 mmHg 80%
    05:00 +19°C° 0 mm 1 mps 750 mmHg 81%
    06:00 +19°C° 0 mm 1 mps 750 mmHg 82%
    07:00 +21°C° 0 mm 1 mps 750 mmHg 77%
    08:00 +23°C° 0 mm 1 mps 751 mmHg 72%
    09:00 +24°C° 0 mm 1 mps 751 mmHg 67%
    10:00 +25°C° 0 mm 1 mps 751 mmHg 62%
    11:00 +26°C° 0 mm 2 mps 751 mmHg 58%
    12:00 +27°C° 0 mm 2 mps 751 mmHg 53%
    13:00 +27°C° 0 mm 1 mps 751 mmHg 52%
    14:00 +27°C° 0 mm 1 mps 750 mmHg 50%
    15:00 +28°C° 0 mm 1 mps 750 mmHg 48%
    16:00 +28°C° 0 mm 1 mps 750 mmHg 52%
    17:00 +27°C° 0 mm 1 mps 750 mmHg 56%
    18:00 +27°C° 0 mm 1 mps 750 mmHg 60%
    19:00 +25°C° 0 mm 1 mps 750 mmHg 63%
    20:00 +23°C° 0 mm 1 mps 750 mmHg 67%
    21:00 +21°C° 0 mm 1 mps 750 mmHg 70%
    22:00 +21°C° 0 mm 1 mps 751 mmHg 71%
    23:00 +20°C° 0 mm 1 mps 751 mmHg 73%

    21 June, Friday

    Time Temperature Precipitation Wind Pressure Humidity
    00:00 +20°C° 0 mm 1 mps 751 mmHg 74%
    01:00 +19°C° 0 mm 1 mps 751 mmHg 76%
    02:00 +19°C° 0 mm 1 mps 751 mmHg 78%
    03:00 +18°C° 0 mm 1 mps 751 mmHg 80%
    04:00 +17°C° 0 mm 0 mps 751 mmHg 80%
    05:00 +18°C° 0 mm 0 mps 751 mmHg 80%
    06:00 +19°C° 0 mm 0 mps 752 mmHg 80%
    07:00 +20°C° 0 mm 0 mps 752 mmHg 75%
    08:00 +22°C° 0 mm 0 mps 752 mmHg 70%
    09:00 +23°C° 0 mm 0 mps 752 mmHg 65%
    10:00 +26°C° 0 mm 1 mps 752 mmHg 61%
    11:00 +27°C° 0 mm 1 mps 752 mmHg 57%
    12:00 +27°C° 0 mm 1 mps 752 mmHg 53%
    13:00 +28°C° 0 mm 1 mps 752 mmHg 53%
    14:00 +28°C° 0 mm 2 mps 751 mmHg 52%
    15:00 +28°C° 0 mm 2 mps 751 mmHg 52%
    16:00 +28°C° 0 mm 2 mps 751 mmHg 56%
    17:00 +28°C° 0 mm 2 mps 751 mmHg 61%
    18:00 +27°C° 0 mm 2 mps 751 mmHg 65%
    19:00 +26°C° 0 mm 1 mps 751 mmHg 67%
    20:00 +24°C° 0 mm 1 mps 751 mmHg 69%
    21:00 +22°C° 0 mm 1 mps 751 mmHg 71%
    22:00 +22°C° 0 mm 1 mps 751 mmHg 71%
    23:00 +21°C° 0 mm 1 mps 751 mmHg 71%

    22 June, Saturday

    Time Temperature Precipitation Wind Pressure Humidity
    00:00 +21°C° 0 mm 1 mps 751 mmHg 71%
    01:00 +20°C° 0 mm 1 mps 751 mmHg 72%
    02:00 +20°C° 0 mm 1 mps 751 mmHg 74%
    03:00 +20°C° 0 mm 1 mps 751 mmHg 76%
    04:00 +20°C° 0 mm 1 mps 751 mmHg 77%
    05:00 +21°C° 0 mm 1 mps 751 mmHg 78%
    06:00 +22°C° 0 mm 1 mps 751 mmHg 79%
    07:00 +23°C° 0 mm 1 mps 751 mmHg 74%
    08:00 +24°C° 0 mm 1 mps 752 mmHg 70%
    09:00 +26°C° 0 mm 1 mps 752 mmHg 65%
    10:00 +27°C° 0 mm 1 mps 751 mmHg 61%
    11:00 +27°C° 0 mm 2 mps 751 mmHg 58%
    12:00 +28°C° 0 mm 2 mps 751 mmHg 54%
    13:00 +28°C° 0 mm 2 mps 751 mmHg 55%
    14:00 +28°C° 0 mm 2 mps 751 mmHg 56%
    15:00 +29°C° 0 mm 2 mps 751 mmHg 58%
    16:00 +28°C° 0 mm 2 mps 751 mmHg 60%
    17:00 +28°C° 0 mm 2 mps 750 mmHg 63%
    18:00 +28°C° 0 mm 1 mps 750 mmHg 65%
    19:00 +27°C° 0 mm 1 mps 750 mmHg 68%
    20:00 +25°C° 0 mm 1 mps 750 mmHg 70%
    21:00 +23°C° 0 mm 1 mps 750 mmHg 73%
    22:00 +22°C° 0 mm 1 mps 750 mmHg 73%
    23:00 +22°C° 0 mm 1 mps 750 mmHg 73%
    Show more